, AK

(GMT )
Deadhorse

Weather History for PASC - February, 2014

Change the Weather History Date:

Monday, February 10, 2014

  Actual Average Record
Temperature  
Mean Temperature -8 °F -  
Max Temperature 8 °F -7 °F 31 °F (1989)
Min Temperature -24 °F -19 °F -50 °F (1999)
Degree Days  
Heating Degree Days 73    
Moisture  
Dew Point -11 °F    
Average Humidity 81    
Maximum Humidity 95    
Minimum Humidity 72    
Precipitation  
Precipitation 0.00 in - - ()
Sea Level Pressure  
Sea Level Pressure 30.30 in    
Wind  
Wind Speed 11 mph (SW)    
Max Wind Speed 24 mph    
Max Gust Speed -    
Visibility 4 miles    
Events Fog , Snow    
Averages and records for this station are not official NWS values.
T = Trace of Precipitation, MM = Missing Value Source: NWS Daily Summary

Daily Weather History Graph

Daily Weather History Graph

Search for Another Location

Airport or City:

Trip Planner

Search our weather history database for the weather conditions in past years. The results will help you decide how hot, cold, wet, or windy it might be!

Date:

Astronomy

Feb. 10, 2014 Rise Set
Actual Time 9:52 AM AKST 4:25 PM AKST
Civil Twilight 8:38 AM AKST 5:39 PM AKST
Nautical Twilight 7:24 AM AKST 6:53 PM AKST
Astronomical Twilight 6:13 AM AKST 8:04 PM AKST
Moon 11:23 AM AKST (2/10) 8:33 AM AKST (2/10)
Length of Visible Light 9h 00m
Length of Day
6h 32m
Waxing Gibbous, 85% of the Moon is Illuminated
Feb 10
Waxing Gibbous
Feb 14
Full
Feb 22
Last Quarter
Feb 28
New
Mar 8
First Quarter

Hourly Weather History & Observations

Time (AKST) Temp. Windchill Dew Point Humidity Pressure Visibility Wind Dir Wind Speed Gust Speed Precip Events Conditions
12:36 AM -18.4 °F -37.9 °F -23.8 °F 76% 30.76 in 1.0 mi SW 9.2 mph - N/A   Overcast
12:45 AM -18.4 °F -36.6 °F -23.8 °F 76% 30.76 in 0.5 mi SW 8.1 mph - N/A Fog Light Freezing Fog
12:53 AM -17.0 °F -36.1 °F -22.0 °F 78% 30.77 in 0.5 mi SW 9.2 mph - N/A Fog Light Freezing Fog
1:53 AM -15.0 °F -35.9 °F -20.0 °F 78% 30.75 in 0.8 mi SW 11.5 mph - N/A   Mist
2:53 AM -16.1 °F -35.0 °F -20.0 °F 82% 30.72 in 0.5 mi SW 9.2 mph - N/A Fog Light Freezing Fog
3:16 AM -16.6 °F -36.8 °F -20.2 °F 84% 30.69 in 1.0 mi SW 10.4 mph - N/A   Mist
3:53 AM -18.9 °F -35.8 °F -22.0 °F 86% 30.68 in 2.0 mi WSW 6.9 mph - N/A   Overcast
4:19 AM -20.2 °F -40.1 °F -23.8 °F 83% 30.65 in 0.8 mi SW 9.2 mph - N/A   Mist
4:29 AM -20.2 °F -38.8 °F -25.6 °F 76% 30.64 in 1.0 mi SSW 8.1 mph - N/A   Mist
4:53 AM -22.0 °F -39.4 °F -26.0 °F 82% 30.64 in 3.0 mi SW 6.9 mph - N/A   Mostly Cloudy
5:28 AM -22.0 °F -39.4 °F -27.4 °F 76% 30.60 in 10.0 mi WSW 6.9 mph - N/A   Mostly Cloudy
5:53 AM -23.1 °F -40.7 °F -27.0 °F 82% 30.60 in 10.0 mi WSW 6.9 mph - N/A   Scattered Clouds
6:53 AM -24.0 °F -41.8 °F -29.0 °F 77% 30.57 in 10.0 mi SW 6.9 mph - N/A   Clear
7:53 AM -20.9 °F -42.2 °F -26.0 °F 77% 30.51 in 10.0 mi SSW 10.4 mph - N/A   Mostly Cloudy
8:53 AM -18.0 °F -30.9 °F -20.9 °F 87% 30.46 in 10.0 mi South 4.6 mph - N/A   Mostly Cloudy
9:53 AM -17.0 °F - -20.0 °F 86% 30.43 in 10.0 mi Calm Calm - N/A   Mostly Cloudy
10:53 AM -13.0 °F - -14.1 °F 95% 30.39 in 10.0 mi Calm Calm - N/A   Mostly Cloudy
11:53 AM -11.9 °F -21.5 °F -16.1 °F 82% 30.33 in 10.0 mi SE 3.5 mph - N/A   Mostly Cloudy
12:53 PM -9.0 °F -27.4 °F -14.1 °F 79% 30.26 in 10.0 mi SSE 10.4 mph - N/A   Overcast
1:53 PM -4.0 °F -17.8 °F -9.9 °F 76% 30.22 in 10.0 mi South 6.9 mph - N/A   Overcast
2:53 PM -4.0 °F - -8.0 °F 83% 30.18 in 10.0 mi Calm Calm - N/A   Overcast
3:53 PM -4.0 °F -14.6 °F -9.0 °F 79% 30.14 in 10.0 mi SW 4.6 mph - N/A   Overcast
4:53 PM -0.9 °F -19.9 °F -8.0 °F 72% 30.11 in 10.0 mi SW 13.8 mph - N/A   Overcast
5:38 PM -0.4 °F -20.5 °F -5.8 °F 78% 30.07 in 2.0 mi SW 16.1 mph - 0.00 in Snow Light Snow
5:48 PM 1.4 °F -18.8 °F -4.0 °F 78% 30.06 in 1.8 mi SW 17.3 mph - 0.00 in Snow Light Snow
5:53 PM 1.0 °F -19.3 °F -4.0 °F 79% 30.07 in 2.0 mi SW 17.3 mph - 0.00 in Snow Light Snow
6:07 PM 1.4 °F -19.4 °F -2.2 °F 85% 30.05 in 4.0 mi SW 18.4 mph - 0.00 in Snow Light Snow
6:53 PM 3.9 °F -16.1 °F -0.0 °F 84% 30.04 in 3.0 mi SW 18.4 mph - 0.00 in Snow Light Snow
7:53 PM 5.0 °F -16.2 °F 1.9 °F 87% 30.01 in 1.5 mi SW 21.9 mph - 0.00 in Snow Light Snow
8:14 PM 6.8 °F -14.3 °F 3.2 °F 85% 30.00 in 1.5 mi SW 23.0 mph - 0.00 in Snow Light Snow
8:53 PM 7.0 °F -13.6 °F 3.9 °F 87% 29.99 in 1.5 mi SW 21.9 mph - 0.00 in Snow Light Snow
9:00 PM 8.6 °F -11.9 °F 3.2 °F 79% 29.98 in 1.8 mi SW 23.0 mph - 0.00 in Snow Light Snow
9:07 PM 8.6 °F -12.3 °F 3.2 °F 79% 29.97 in 2.0 mi SW 24.2 mph - 0.00 in Snow Light Snow
9:14 PM 8.6 °F -11.9 °F 5.0 °F 85% 29.97 in 1.5 mi SW 23.0 mph - 0.00 in Snow Light Snow
9:31 PM 8.6 °F -11.0 °F 3.2 °F 79% 29.96 in 2.0 mi SW 20.7 mph - 0.00 in Snow Light Snow
9:53 PM 8.1 °F -11.7 °F 3.9 °F 83% 29.96 in 2.0 mi SW 20.7 mph - 0.00 in Snow Light Snow
10:09 PM 8.6 °F -9.5 °F 3.2 °F 79% 29.95 in 2.5 mi SW 17.3 mph - 0.00 in Snow Light Snow
10:25 PM 8.6 °F -9.5 °F 3.2 °F 79% 29.95 in 2.5 mi WSW 17.3 mph - 0.00 in Snow Light Snow
10:53 PM 7.0 °F -11.0 °F 3.9 °F 87% 29.96 in 3.0 mi WSW 16.1 mph - 0.00 in Snow Light Snow
11:53 PM 6.1 °F -12.8 °F 3.0 °F 87% 29.96 in 4.0 mi West 17.3 mph - 0.00 in Snow Light Snow